Hourly Data Report for October 17, 2016

All times are specified in Local Standard Time (LST). Add 1 hour to adjust for Daylight Saving Time where and when it is observed.

QIKIQTARJUAQ A
NUNAVUT

67°32'48.000" N
64°01'54.000" W
5.50 m
2400577
YVM

Download Data

Hourly Data (October 2016)
Hourly Data Report for October 17, 2016
Temp Definition
°C
Dew Point Temp Definition
°C
Rel Hum Definition
%
Wind Dir Definition
10's deg

Wind Spd Definition
km/h
Visibility Definition
km
Stn Press Definition
kPa
Hmdx Definition


Wind Chill Definition


Weather Definition


TIME
00:00 Legend Double Dagger -4.7 -6.0 91 14 5 16.1 101.57   -7 LegendNANA
01:00 Legend Double Dagger -4.2 -6.4 85 17 8 16.1 101.58   -8 LegendNANA
02:00 Legend Double Dagger -3.7 -7.3 76 33 4 16.1 101.62   -5 LegendNANA
03:00 Legend Double Dagger -4.3 -7.0 81 19 8 16.1 101.68   -8 LegendNANA
04:00 Legend Double Dagger -3.8 -7.8 74 LegendMM 4 16.1 101.71   -5 LegendNANA
05:00 Legend Double Dagger -4.5 -8.1 76 35 5 16.1 101.73   -7 LegendNANA
06:00 Legend Double Dagger -5.3 -8.2 80 15 5 16.1 101.74   -8 LegendNANA
07:00 Legend Double Dagger -5.4 -8.7 78 19 11 16.1 101.74   -10 LegendNANA
08:00 Legend Double Dagger -6.5 -10.3 75 19 13 16.1 101.73   -12 LegendNANA
09:00 Legend Double Dagger -7.1 -10.2 79 15 5 16.1 101.71   -10 LegendNANA
10:00 Legend Double Dagger -6.3 -10.6 72 LegendMM 4 16.1 101.69   -8 LegendNANA
11:00 Legend Double Dagger -7.5 -11.0 76 14 5 16.1 101.69   -10 LegendNANA
12:00 Legend Double Dagger -7.6 -10.5 80 15 9 16.1 101.70   -12 LegendNANA
13:00 Legend Double Dagger -7.3 -10.0 81 13 9 16.1 101.72   -12 LegendNANA
14:00 Legend Double Dagger -7.4 -10.1 81 13 5 16.1 101.74   -10 LegendNANA
15:00 Legend Double Dagger -7.5 -10.2 81 15 5 16.1 101.78   -10 LegendNANA
16:00 Legend Double Dagger -7.0 -10.1 79 18 8 16.1 101.80   -11 LegendNANA
17:00 Legend Double Dagger -7.0 -11.2 72 19 15 16.1 101.78   -13 LegendNANA
18:00 Legend Double Dagger -6.6 -11.8 67 17 11 16.1 101.75   -12 LegendNANA
19:00 Legend Double Dagger -5.5 -11.6 62 20 22 16.1 101.70   -13 LegendNANA
20:00 Legend Double Dagger -5.2 -10.8 65 20 24 16.1 101.66   -12 LegendNANA
21:00 Legend Double Dagger -5.2 -10.8 65 19 21 16.1 101.64   -12 LegendNANA
22:00 Legend Double Dagger -5.2 -11.4 62 17 9 16.1 101.66   -9 LegendNANA
23:00 Legend Double Dagger -5.8 -11.6 64 9 8 16.1 101.64   -10 LegendNANA

Notes on Data Quality.

Legend

  • E = Estimated
  • M = Missing
  • NA = Not Available
  • ‡ = Partner data that is not subject to review by the National Climate Archives
Date modified: